This is the latest recevied weather packets stored in our database for station/object OK1TOM-6. If no packets are shown the sender has not sent any weather packets the latest 10 day(s).
| Time | Temp. | Humidity | Pressure | Rain* | Wind** | Luminosity | Snow |
|---|---|---|---|---|---|---|---|
| 1777572320 | 8.89° C | 48% | 1030.7 hPa | 0 mm | - | - | - |
| 1777571717 | 9.44° C | 47% | 1030.7 hPa | 0 mm | - | - | - |
| 1777571174 | 10° C | 44% | 1030.6 hPa | 0 mm | - | - | - |
| 1777570570 | 10.56° C | 41% | 1030.6 hPa | 0 mm | - | - | - |
| 1777569967 | 10.56° C | 42% | 1030.6 hPa | 0 mm | - | - | - |
| 1777569363 | 10.56° C | 42% | 1030.7 hPa | 0 mm | - | - | - |
| 1777568760 | 11.11° C | 41% | 1030.8 hPa | 0 mm | - | - | - |
| 1777568157 | 11.11° C | 41% | 1030.8 hPa | 0 mm | - | - | - |
| 1777567553 | 11.11° C | 40% | 1030.9 hPa | 0 mm | - | - | - |
| 1777566950 | 11.67° C | 40% | 1030.8 hPa | 0 mm | - | - | - |
| 1777566346 | 11.11° C | 39% | 1031 hPa | 0 mm | - | - | - |
| 1777565743 | 11.11° C | 39% | 1031 hPa | 0 mm | - | - | - |
| 1777565139 | 11.67° C | 39% | 1031 hPa | 0 mm | - | - | - |
| 1777564536 | 11.67° C | 39% | 1031.1 hPa | 0 mm | - | - | - |
| 1777563932 | 11.67° C | 39% | 1031.3 hPa | 0 mm | - | - | - |
| 1777563329 | 11.67° C | 37% | 1031.1 hPa | 0 mm | - | - | - |
| 1777562726 | 12.22° C | 39% | 1031.1 hPa | 0 mm | - | - | - |
| 1777562122 | 11.67° C | 37% | 1031.1 hPa | 0 mm | - | - | - |
| 1777561519 | 11.67° C | 38% | 1031.2 hPa | 0 mm | - | - | - |
| 1777560915 | 12.22° C | 37% | 1031.1 hPa | 0 mm | - | - | - |
| 1777560372 | 11.67° C | 37% | 1031.2 hPa | 0 mm | - | - | - |
| 1777559769 | 11.67° C | 37% | 1031.3 hPa | 0 mm | - | - | - |
| 1777559165 | 12.22° C | 37% | 1031.4 hPa | 0 mm | - | - | - |
| 1777558562 | 12.22° C | 36% | 1031.4 hPa | 0 mm | - | - | - |
| 1777557958 | 11.67° C | 35% | 1031.5 hPa | 0 mm | - | - | - |
* Rain latest hour (hover to see other rain measurements)
** Current wind speed in m/s (hover to see current wind gust speed)